This is the latest recevied weather packets stored in our database for station/object M0HZQ-1. If no packets are shown the sender has not sent any weather packets the latest 10 day(s).
| Time | Temp. | Humidity | Pressure | Rain* | Wind** | Luminosity | Snow |
|---|---|---|---|---|---|---|---|
| 1777543339 | 18.33° C | 36% | 1023.2 hPa | 0 mm | - | - | - |
| 1777542269 | 17.78° C | 37% | 1023.3 hPa | 0 mm | - | - | - |
| 1777541187 | 17.78° C | 38% | 1023.5 hPa | 0 mm | - | - | - |
| 1777539997 | 17.78° C | 38% | 1023.5 hPa | 0 mm | - | - | - |
| 1777538884 | 17.22° C | 38% | 1023.6 hPa | 0 mm | - | - | - |
| 1777537741 | 17.22° C | 38% | 1023.7 hPa | 0 mm | - | - | - |
| 1777536569 | 16.11° C | 40% | 1023.7 hPa | 0 mm | - | - | - |
| 1777535594 | 16.11° C | 41% | 1023.9 hPa | 0 mm | - | - | - |
| 1777534474 | 15.56° C | 42% | 1023.9 hPa | 0 mm | - | - | - |
| 1777533439 | 15.56° C | 43% | 1023.8 hPa | 0 mm | - | - | - |
| 1777532404 | 15° C | 45% | 1023.6 hPa | 0 mm | - | - | - |
| 1777531242 | 14.44° C | 47% | 1023.7 hPa | 0 mm | - | - | - |
| 1777530279 | 14.44° C | 48% | 1023.7 hPa | 0 mm | - | - | - |
| 1777529109 | 13.33° C | 49% | 1023.6 hPa | 0 mm | - | - | - |
| 1777528114 | 13.33° C | 50% | 1023.7 hPa | 0 mm | - | - | - |
| 1777527037 | 13.33° C | 50% | 1023.7 hPa | 0 mm | - | - | - |
| 1777525894 | 13.33° C | 50% | 1023.5 hPa | 0 mm | - | - | - |
| 1777524924 | 12.78° C | 51% | 1023.5 hPa | 0 mm | - | - | - |
| 1777523769 | 12.78° C | 52% | 1023.4 hPa | 0 mm | - | - | - |
| 1777522749 | 12.78° C | 52% | 1023.5 hPa | 0 mm | - | - | - |
| 1777521759 | 12.78° C | 52% | 1023.5 hPa | 0 mm | - | - | - |
| 1777520764 | 12.78° C | 52% | 1023.4 hPa | 0 mm | - | - | - |
| 1777519677 | 12.22° C | 52% | 1023.5 hPa | 0 mm | - | - | - |
| 1777518674 | 12.22° C | 52% | 1023.6 hPa | 0 mm | - | - | - |
| 1777517569 | 12.22° C | 51% | 1023.7 hPa | 0 mm | - | - | - |
* Rain latest hour (hover to see other rain measurements)
** Current wind speed in m/s (hover to see current wind gust speed)